[[{"header":{"parameterUnit":"m.s-1","parameterCategory":1,"la1":30.2991,"la2":30.254,"lo1":-89.0895,"lo2":-89.0444,"dy":0.0017,"dx":0.0017,"nx":28,"ny":28,"refTime":"2024-06-15T21:00:00:Z","depth":0,"parameterNumber":2,"parameterNumberName":"U-component_of_WINDS"},"data":[0,0,0,0,0,0,0,0,0,0,0,0,0,0,0,0,0,0,0,0,0,0,0,0,0,0,0,0,0,0,0,0,0,0,0,0,0,0,0,0,0,0,0,0,0,0,0,0,0,0,0,0,0,0,0,0,0,0,-4.6636,-4.6636,0,-4.6698,-4.6699,-4.6699,-4.6609,-4.6606,-4.6603,-4.66,-4.6661,-4.6665,-4.667,0,0,0,0,0,0,0,0,0,0,0,0,0,-4.6437,-4.6441,-4.6636,-4.6636,-4.6637,-4.6698,-4.6699,-4.6699,-4.661,-4.6606,-4.6602,-4.6598,-4.6659,-4.6665,-4.667,0,0,0,0,0,0,0,0,0,0,0,0,0,-4.6514,-4.6442,-4.6636,-4.66,-4.6597,-4.6698,-4.6699,-4.67,-4.6611,-4.6606,-4.6601,-4.6597,-4.6658,-4.6664,-4.6671,-4.6808,0,0,-4.6692,-4.6695,0,0,0,0,0,0,0,0,-4.6509,-4.6521,-4.6604,-4.6602,-4.66,-4.6641,-4.6651,-4.6736,-4.6612,-4.6605,-4.66,-4.6594,-4.6658,-4.6664,-4.6686,-4.6811,-4.6814,-4.6693,-4.6697,-4.67,-4.6702,0,0,0,0,0,0,0,-4.6504,-4.6518,-4.666,-4.6606,-4.6603,-4.658,-4.6586,-4.6667,-4.6657,-4.6606,-4.6599,-4.6608,-4.6656,-4.668,-4.6687,-4.6815,-4.6692,-4.6698,-4.6703,-4.6705,-4.7054,-4.7059,0,0,0,0,0,0,-4.6503,-4.6514,-4.6658,-4.6662,-4.6542,-4.6587,-4.6594,-4.6632,-4.6656,-4.6655,-4.6612,-4.6604,-4.6671,-4.6679,-4.6689,-4.6849,-4.67,-4.6706,-4.671,-4.7049,-4.7055,-4.7061,0,0,0,0,0,0,-4.65,-4.6517,-4.6656,-4.6586,-4.6602,-4.6596,-4.664,-4.6636,-4.666,-4.6661,-4.6659,-4.6639,-4.6667,-4.6679,-4.6779,-4.685,-4.6709,-4.6715,-4.7043,-4.7051,-4.7058,-4.7173,0,0,0,0,0,0,-4.6494,-4.6516,-4.6569,-4.6588,-4.6606,-4.6746,-4.6645,-4.6641,-4.6673,-4.6662,-4.6685,-4.6685,-4.6664,-4.6769,-4.6786,-4.6857,-4.6721,-4.7036,-4.7046,-4.7055,-4.7162,-4.7183,-4.7201,0,0,0,0,0,-4.6487,-4.6599,-4.6572,-4.659,-4.6672,-4.675,-4.676,-4.6735,-4.6679,-4.6731,-4.6732,-4.6684,-4.6841,-4.678,-4.6798,-4.6873,-4.7032,-4.7043,-4.7055,-4.7154,-4.7179,-4.7201,0,0,0,0,0,0,-4.6586,-4.66,-4.6571,-4.6692,-4.6721,-4.6735,-4.6799,-4.6764,-4.6808,-4.6796,-4.6763,-4.6769,-4.6875,-4.6885,-4.6817,-4.7006,-4.6927,-4.6942,-4.6996,-4.702,-4.7039,-4.7033,-4.6726,0,0,0,0,0,-4.6623,-4.6686,-4.6694,-4.68,-4.6816,-4.6806,-4.6839,-4.6818,-4.6846,-4.6857,-4.6865,-4.6893,-4.6948,-4.6985,-4.7036,-4.7165,-4.7167,-4.7225,-4.7244,-4.726,-4.7273,-4.7339,-4.7364,-4.7099,-4.7098,-4.7098,0,0,-4.6697,-4.6713,-4.6754,-4.682,-4.684,-4.6905,-4.6817,-4.6889,-4.6936,-4.6868,-4.6961,-4.6969,-4.6998,-4.7113,-4.7163,-4.7123,-4.7348,-4.7275,-4.7288,-4.7292,-4.7354,-4.7379,-4.7401,-4.7106,-4.7105,-4.7104,0,0,-4.6866,-4.6885,-4.6974,-4.6996,-4.7028,-4.702,-4.7042,-4.7063,-4.7065,-4.7159,-4.7109,-4.7165,-4.7261,-4.7283,-4.7308,-4.7487,-4.7443,-4.7505,-4.7604,-4.767,-4.7691,-4.7709,-4.777,-4.7793,-4.7518,-4.7518,-4.7519,0,-4.6954,-4.705,-4.7025,-4.7101,-4.713,-4.7073,-4.7162,-4.7185,-4.7231,-4.7253,-4.7208,-4.7328,-4.7344,-4.7461,-4.7505,-4.7528,-4.755,-4.75,-4.769,-4.7708,-4.7725,-4.7782,-4.7806,-4.7525,-4.7525,-4.7524,-4.7523,0,-4.7156,-4.7224,-4.7293,-4.7339,-4.7377,-4.746,-4.7445,-4.7487,-4.7463,-4.746,-4.7557,-4.7575,-4.7627,-4.7655,-4.7632,-4.7769,-4.7743,-4.7696,-4.7614,-4.7757,-4.7811,-4.7833,-4.7535,-4.7533,-4.7531,-4.7529,0,0,-4.7385,-4.7418,-4.7443,-4.7463,-4.7495,-4.7546,-4.7626,-4.7679,-4.7714,-4.7749,-4.7813,-4.7897,-4.7853,-4.7881,-4.786,-4.7918,-4.8056,-4.7863,-4.7863,-4.7895,-4.8205,-4.8239,-4.8265,-4.8029,-4.8034,-4.8037,-4.8202,0,-4.7551,-4.7689,-4.7669,-4.7801,-4.7863,-4.781,-4.7879,-4.7906,-4.7906,-4.7957,-4.7957,-4.8016,-4.7955,-4.7971,-4.8026,-4.8027,-4.8117,-4.8016,-4.8086,-4.8089,-4.8077,-4.8293,-4.8329,-4.8483,-4.8223,-4.8226,-4.8229,0,-4.7762,-4.7805,-4.7944,-4.7965,-4.799,-4.8053,-4.8099,-4.815,-4.8178,-4.8174,-4.8206,-4.8175,-4.8254,-4.8175,-4.8282,-4.8213,-4.8242,-4.8247,-4.8252,-4.8255,-4.8165,-4.8298,-4.8532,-4.8554,-4.8262,-4.826,-4.8257,0,-4.7911,-4.8004,-4.8099,-4.8118,-4.8146,-4.8191,-4.8205,-4.8229,-4.8262,-4.8303,-4.8323,-4.8373,-4.84,-4.8438,-4.8422,-4.8366,-4.8531,-4.8451,-4.8528,-4.8528,-4.8561,-4.8559,-4.88,-4.8587,-4.8586,-4.8586,-4.8585,0,-4.8096,-4.8182,-4.8166,-4.8224,-4.8319,-4.8295,-4.8389,-4.8397,-4.8419,-4.8476,-4.8435,-4.849,-4.8466,-4.8519,-4.8507,-4.8596,-4.8609,-4.8607,-4.8601,-4.8608,-4.8608,-4.8623,-4.8611,-4.8592,-4.859,-4.8589,-4.8588,0,-4.8277,-4.827,-4.8369,-4.8388,-4.8395,-4.8464,-4.848,-4.8533,-4.8532,-4.8605,-4.8621,-4.8617,-4.8677,-4.8666,-4.8732,-4.8724,-4.8834,-4.8818,-4.8825,-4.8819,-4.8896,-4.8888,-4.9152,-4.9184,-4.8954,-4.8956,-4.8958,0,-4.8394,-4.8459,-4.8485,-4.8521,-4.8538,-4.8597,-4.863,-4.8611,-4.8647,-4.8685,-4.8734,-4.8791,-4.8834,-4.8933,-4.8936,-4.8986,-4.8969,-4.9058,-4.8976,-4.898,-4.8966,-4.8961,-4.8966,-4.9073,-4.9076,-4.9078,-4.908,0,-4.86,-4.8594,-4.8644,-4.8694,-4.8735,-4.8773,-4.8807,-4.8839,-4.8821,-4.8865,-4.8926,-4.8961,-4.9029,-4.9085,-4.9132,-4.9145,-4.9109,-4.9106,-4.9126,-4.9131,-4.9131,-4.9129,-4.8865,-4.9099,-4.9097,-4.9096,-4.9095,-4.9094,-4.875,-4.8805,-4.8832,-4.8889,-4.8913,-4.8946,-4.8997,-4.9002,-4.9053,-4.9107,-4.9093,-4.9162,-4.9189,-4.9248,-4.9267,-4.932,-4.9287,-4.9316,-4.9323,-4.933,-4.9338,-4.9126,-4.9329,-4.9329,-4.9328,-4.9328,-4.9327,0,-4.8952,-4.8967,-4.902,-4.9069,-4.9114,-4.9079,-4.9115,-4.9154,-4.9216,-4.9245,-4.9289,-4.9359,-4.9414,-4.9422,-4.9474,-4.9515,-4.9499,-4.9528,-4.9523,-4.9526,-4.9366,-4.9342,-4.954,-4.954,-4.954,-4.954,-4.954,-4.954,-4.9061,-4.9152,-4.9149,-4.925,-4.9264,-4.9332,-4.9356,-4.9385,-4.9408,-4.9488,-4.9534,-4.9539,-4.9559,-4.9612,-4.966,-4.9661,-4.968,-4.9716,-4.971,-4.9559,-4.9538,-4.9517,-4.9495,-4.9721,-4.9721,-4.9865,-4.9866,-4.9867]},{"header":{"parameterUnit":"m.s-1","parameterCategory":1,"la1":30.2991,"la2":30.254,"lo1":-89.0895,"lo2":-89.0444,"dy":0.0017,"dx":0.0017,"nx":28,"ny":28,"refTime":"2024-06-15T21:00:00:Z","depth":0,"parameterNumber":3,"parameterNumberName":"V-component_of_WINDS"},"data":[0,0,0,0,0,0,0,0,0,0,0,0,0,0,0,0,0,0,0,0,0,0,0,0,0,0,0,0,0,0,0,0,0,0,0,0,0,0,0,0,0,0,0,0,0,0,0,0,0,0,0,0,0,0,0,0,0,0,2.885,2.885,0,2.8824,2.8824,2.8824,2.8728,2.8726,2.8724,2.8721,2.8697,2.8698,2.8699,0,0,0,0,0,0,0,0,0,0,0,0,0,2.8818,2.8819,2.885,2.885,2.8849,2.8825,2.8824,2.8824,2.8728,2.8726,2.8723,2.872,2.8696,2.8698,2.87,0,0,0,0,0,0,0,0,0,0,0,0,0,2.8816,2.8819,2.885,2.8799,2.8794,2.8825,2.8824,2.8824,2.8729,2.8726,2.8722,2.8719,2.8696,2.8698,2.87,2.8779,0,0,2.8706,2.8707,0,0,0,0,0,0,0,0,2.8816,2.8818,2.8806,2.8802,2.8797,2.8776,2.8804,2.8809,2.873,2.8754,2.8721,2.8718,2.8726,2.8725,2.8728,2.8777,2.8776,2.8706,2.8708,2.8708,2.8709,0,0,0,0,0,0,0,2.8817,2.8818,2.884,2.8806,2.8801,2.8778,2.8774,2.8804,2.8759,2.8751,2.8744,2.8742,2.8723,2.8726,2.8726,2.8776,2.8706,2.8708,2.8709,2.871,2.8889,2.8893,0,0,0,0,0,0,2.8824,2.8819,2.8841,2.8839,2.8799,2.8781,2.8776,2.8786,2.8758,2.875,2.8745,2.8738,2.8724,2.8724,2.8725,2.8815,2.8708,2.871,2.8712,2.8886,2.889,2.8894,0,0,0,0,0,0,2.8824,2.8827,2.8842,2.8827,2.8827,2.8785,2.8796,2.8787,2.879,2.8753,2.8745,2.8757,2.8721,2.8722,2.8766,2.8813,2.8711,2.8713,2.8882,2.8887,2.8892,2.8995,0,0,0,0,0,0,2.8823,2.8827,2.8856,2.8828,2.8828,2.8882,2.8799,2.8789,2.8794,2.8784,2.8762,2.8755,2.8719,2.8763,2.8768,2.8814,2.8715,2.8877,2.8884,2.889,2.8988,2.9004,2.9017,0,0,0,0,0,2.8822,2.8886,2.8858,2.8861,2.8863,2.8885,2.8885,2.8842,2.8798,2.8827,2.8804,2.8756,2.8808,2.8769,2.8773,2.882,2.8874,2.8882,2.889,2.8981,2.9,2.9017,0,0,0,0,0,0,2.892,2.8882,2.885,2.8906,2.89,2.8869,2.8904,2.8864,2.8869,2.886,2.8807,2.8803,2.8854,2.8842,2.8799,2.8895,2.8833,2.8842,2.8901,2.8919,2.8933,2.8934,2.8717,0,0,0,0,0,2.8949,2.8969,2.8934,2.8988,2.8986,2.8946,2.8954,2.8921,2.8912,2.8909,2.8889,2.8882,2.8897,2.8908,2.8919,2.8987,2.898,2.9021,2.9036,2.9048,2.9056,2.9091,2.9108,2.892,2.892,2.892,0,0,2.9007,2.8988,2.9004,2.9007,2.8998,2.9021,2.8944,2.8972,2.8988,2.8913,2.8952,2.8938,2.8928,2.8984,2.9007,2.8975,2.9108,2.9059,2.9069,2.907,2.9101,2.9119,2.9135,2.8925,2.8924,2.8923,0,0,2.9124,2.9113,2.9156,2.9149,2.9136,2.9109,2.912,2.9096,2.9083,2.9122,2.9067,2.9087,2.9113,2.9107,2.9108,2.9227,2.9183,2.9233,2.9309,2.9343,2.9358,2.9371,2.9412,2.9428,2.9241,2.9241,2.9241,0,2.9198,2.9229,2.9183,2.9214,2.9217,2.9152,2.9195,2.9191,2.9183,2.9187,2.9152,2.9184,2.9172,2.9226,2.9255,2.9258,2.9269,2.9233,2.936,2.9372,2.9383,2.9422,2.9438,2.9247,2.9247,2.9246,2.9245,0,2.9321,2.9344,2.938,2.9374,2.9382,2.9419,2.9379,2.9393,2.9361,2.9338,2.9379,2.9364,2.9371,2.9382,2.935,2.9431,2.9411,2.9369,2.9305,2.9408,2.9443,2.9458,2.9256,2.9254,2.9252,2.925,0,0,2.9496,2.9465,2.9479,2.9476,2.9459,2.9476,2.9511,2.9518,2.953,2.9529,2.9556,2.9582,2.9542,2.9543,2.9512,2.9542,2.9636,2.9495,2.9494,2.9521,2.9723,2.9754,2.9772,2.9608,2.9611,2.9613,2.9724,0,2.9606,2.9663,2.9624,2.9687,2.9708,2.9648,2.9679,2.9672,2.9653,2.9668,2.9647,2.9665,2.9612,2.9613,2.9641,2.9619,2.9676,2.9611,2.9633,2.9634,2.9635,2.979,2.9823,2.9928,2.9738,2.974,2.9742,0,2.9741,2.9745,2.9811,2.9791,2.9798,2.9826,2.9829,2.9845,2.9837,2.9821,2.9824,2.9785,2.9818,2.9758,2.9803,2.976,2.9768,2.9759,2.9762,2.976,2.9692,2.9791,2.996,2.9976,2.9763,2.9761,2.976,0,2.9861,2.9883,2.9925,2.9924,2.9902,2.9923,2.9915,2.9903,2.991,2.9914,2.9918,2.9927,2.9931,2.9939,2.9903,2.9862,2.9954,2.989,2.9941,2.9942,2.996,2.9959,3.0131,2.9969,2.9969,2.9969,2.9968,0,2.9987,3.0029,2.9978,3.0004,3.005,3.0006,3.0053,3.0038,3.0029,3.0051,3.0001,3.0023,2.9976,2.9994,2.9966,3.0008,3.0011,2.9999,2.9991,3.0002,3.0003,3.0004,2.9995,2.9973,2.9972,2.9971,2.997,0,3.0126,3.0094,3.0136,3.0112,3.0107,3.0142,3.0121,3.0144,3.0123,3.0152,3.0156,3.0122,3.0141,3.0107,3.0121,3.0103,3.0161,3.0143,3.0163,3.0157,3.0209,3.0204,3.0386,3.0407,3.0234,3.0236,3.0237,0,3.0207,3.0239,3.0218,3.0229,3.0224,3.0243,3.025,3.0209,3.0218,3.0212,3.0237,3.0251,3.026,3.0292,3.0269,3.028,3.026,3.0323,3.0261,3.0272,3.0259,3.0257,3.0259,3.0335,3.0337,3.0339,3.034,0,3.0355,3.0338,3.0349,3.0357,3.0367,3.0371,3.0371,3.0383,3.0339,3.0353,3.0371,3.0378,3.0393,3.0408,3.0414,3.0406,3.0366,3.0361,3.0372,3.0383,3.0393,3.0387,3.0196,3.0356,3.0354,3.0353,3.0352,3.0352,3.0466,3.0491,3.0481,3.0496,3.0492,3.0494,3.0515,3.0496,3.0511,3.0519,3.0494,3.0518,3.0511,3.0514,3.0511,3.053,3.0501,3.0519,3.0523,3.0528,3.0535,3.0393,3.0531,3.053,3.053,3.0529,3.0529,0,3.0609,3.06,3.0615,3.0617,3.063,3.0592,3.0591,3.0604,3.0626,3.0622,3.0632,3.0654,3.0668,3.0648,3.0659,3.0678,3.066,3.0682,3.0679,3.0677,3.0561,3.0548,3.0696,3.0696,3.0696,3.0696,3.0696,3.0696,3.0685,3.0725,3.0707,3.0746,3.0736,3.0759,3.0762,3.0764,3.076,3.0786,3.0798,3.0785,3.0774,3.0785,3.0797,3.079,3.0796,3.0824,3.0812,3.0702,3.0686,3.067,3.0658,3.0826,3.0827,3.0926,3.0927,3.0928]}]]